Regional Weather Roundup
Issued by NWS Wakefield, VA

Home | Current Version | Previous Version | Text Only | Print | Product List | Glossary On
Versions: 1 2 3 4 5 6 7 8 9 10 11 12 13 14 15 16 17 18 19 20 21 22 23 24 25 26 27 28 29 30 31 32 33 34 35 36 37 38 39 40 41 42 43 44 45 46 47 48 49 50
000
ASUS41 KAKQ 300813
RWRAKQ

REGIONAL WEATHER ROUNDUP
NATIONAL WEATHER SERVICE WAKEFIELD VA
400 AM EDT SUN AUG 30 2015

Note: "fair" indicates few or no clouds below 12,000 feet with no
significant weather and/or obstructions to visibility. * = Denotes
station may not report precipitation (e.g., rain,snow,etc.),
thunder or fog.

VAZ042-051-052>054-056-300900-
NORTHERN VIRGINIA

CITY           SKY/WX    TMP DP  RH WIND       PRES   REMARKS
WASH NATIONAL  MOCLDY    71  64  78 S9        30.10S
DULLES         CLEAR     69  63  81 S7        30.09F
FORT BELVOIR   CLEAR     66  63  90 CALM      30.10S
QUANTICO       CLEAR     71  62  73 SW8G17    30.11S
FREDERICKSBRG* PTCLDY    69  64  83 CALM      30.10S
STAFFORD*      CLEAR     67  62  83 CALM      30.14F
WARRENTON      CLEAR     69  65  89 S5        30.10S
CULPEPER*      CLEAR     63  62  97 CALM      30.11F
MANASSAS*      CLEAR     66  64  94 CALM      30.10S
LEESBURG*      CLEAR     68  68 100 CALM      30.11S
WINCHESTER     CLEAR     68  63  83 SW3       30.09F
FRONT ROYAL*   FAIR      64  61  88 S6        30.09F
LURAY*         FAIR      61  61 100 S3        30.12S
$$

VAZ048-049-060>072-079>083-300900-
CENTRAL AND SOUTH CENTRAL VIRGINIA

CITY           SKY/WX    TMP DP  RH WIND       PRES   REMARKS
RICHMOND       PTCLDY    67  61  81 SW3       30.12S
CHESTERFIELD*  FAIR      64  52  63 CALM      30.13S
PETERSBURG*    CLEAR     61  61 100 CALM      30.13S
HANOVER        PTCLDY    67  62  84 S6        30.13S
TAPPAHANNOCK*  PTCLDY    64  60  87 CALM      30.12S
QUINTON*       FAIR      63  62  96 CALM      30.12R
CHARLOTTSVILLE PTCLDY    68  63  84 SW6       30.11S
GORDONSVILLE*  FAIR      63  62  97 CALM      30.11F
ORANGE*        MOCLDY    64  63  94 CALM      30.13S
LOUISA*        MOCLDY    70  64  83 S3        30.11F
BUMPASS*       FAIR      66  62  87 CALM      30.12S
FARMVILLE*     PTCLDY    67  65  92 CALM      30.11S
CREWE*         FAIR     N/A N/A N/A CALM      30.12F
FORT PICKETT*  FAIR      65  63  94 CALM      30.12F
CHASE CITY*    FAIR      68  67  96 CALM      30.13S
CLARKSVILLE*   FAIR      68  63  83 CALM      30.12S
SOUTH HILL*    MOCLDY    64  62  96 CALM      30.18F
LAWRENCEVILLE* FAIR      64  63  94 CALM      30.13S
EMPORIA*       PTCLDY    59  59 100 CALM      30.13S FOG
$$

VAZ088>098-300900-
SOUTHEAST VIRGINIA

CITY           SKY/WX    TMP DP  RH WIND       PRES   REMARKS
NORFOLK        PTCLDY    69  64  84 CALM      30.10F
VIRGINIA BEACH PTCLDY    69  62  78 SW3       30.09F
NORFOLK NAVAL  PTCLDY    66  62  87 CALM      30.11F
WEST POINT*    CLEAR     62  59  91 CALM      30.13S
SALUDA*        FAIR      64  62  95 CALM      30.11S
NEWPORT NEWS   CLEAR     63  61  93 CALM      30.11F
LANGLEY AFB    CLEAR     65  63  92 W2        30.10S
FORT EUSTIS    CLEAR     65  65 100 CALM      30.09F
WILLIAMSBURG*  CLEAR     68  66  94 CALM      30.12S
HR EXEC AP*      N/A     57  54  88 CALM      30.13F
FRANKLIN*      PTCLDY    60  59  97 CALM      30.12S
WAKEFIELD      CLEAR     61  58  90 CALM      30.12S
$$

VAZ020-022-025-037-045-300900-
WEST CENTRAL AND SOUTHWEST VIRGINIA

CITY           SKY/WX    TMP DP  RH WIND       PRES   REMARKS
STAUNTON*      MOCLDY    66  61  84 CALM      30.16S
WAYNESBORO*    FAIR      65  60  85 CALM      30.15S
HOT SPRINGS VA PTCLDY    65  57  75 W9        30.24F
LYNCHBURG      MOCLDY    63  60  90 CALM      30.15S
DANVILLE       CLOUDY    67  63  87 CALM      30.13F
SOUTH BOSTON*  FAIR      65  63  93 CALM      30.13S
MARTINSVILLE   CLOUDY    64  64 100 CALM      30.17S FOG
ROANOKE        CLOUDY    68  61  78 CALM      30.16F
BLACKSBURG     CLOUDY    63  62  97 CALM      30.22S
DUBLIN*        CLOUDY    64  63  98 CALM      30.20S
MARION*        CLOUDY    63  61  92 CALM      30.23S
HILLSVILLE*    CLOUDY    64  59  84 SW3       30.21S
RICHLANDS*     FAIR      65  30  27 CALM      30.20S
WISE*          MOCLDY    66  57  72 SW3       30.22R
ABINGDON*      MOCLDY    67  62  83 CALM      30.18S
$$

MDZ021>025-VAZ099-100-300900-
SOUTHERN MARYLAND AND THE DELMARVA PENINSULA

CITY           SKY/WX    TMP DP  RH WIND       PRES   REMARKS
PATUXENT RIVER CLEAR     64  61  90 CALM      30.10S
BAY BRIDGE APT   N/A     72  63  73 S6        30.10S
LEONARDTOWN    CLEAR     68  63  83 CALM      30.12S
DOVER          CLEAR     67  65  93 S3        30.09S
GEORGETOWN     CLEAR     64  61  90 CALM      30.12S
EASTON         NOT AVBL
CAMBRIDGE      CLEAR     66  63  88 CALM      30.10S
SALISBURY      PTCLDY    63  61  93 CALM      30.11R
OCEAN CITY     CLEAR     63  60  90 CALM      30.11S
WALLOPS ISLAND CLEAR     64  63  96 W3        30.11S
ACCOMACK*      CLEAR     59  50  72 CALM      30.11F
$$

NCZ012>017-030>032-300900-
NORTH CENTRAL AND EASTERN NORTH CAROLINA

CITY           SKY/WX    TMP DP  RH WIND       PRES   REMARKS
ROANOKE RAPIDS FAIR      61  61 100 CALM      30.12S
RALEIGH        CLOUDY    68  61  78 CALM      30.14S
ELIZABETH CITY MOCLDY    70  66  87 NW7       30.10F
AHOSKIE*       PTCLDY    62  61  96 CALM      30.12S
EDENTON*       MOCLDY    66  63  90 CALM      30.10F
CURRITUCK*     MOCLDY    68  64  85 CALM      30.10F
KILL DEVIL HLS MOCLDY    75  70  83 NE3       30.07F
MANTEO         MOCLDY    74  71  89 NE5       30.08F
CAPE HATTERAS  MOCLDY    76  73  91 VRB3      30.08S
TARBORO*       FAIR      64  62  94 CALM      30.13S
GOLDSBORO      FAIR      68  64  87 CALM      30.10F
WASHINGTON     MOCLDY    66  64  95 CALM      30.11S
GREENVILLE     CLOUDY    68  68 100 CALM      30.12F
NEW BERN       PTCLDY    67  64  90 S3        30.12S
WILMINGTON     CLOUDY    71  65  81 CALM      30.10F
$$

VAZ048-300900-
ELSEWHERE

CITY           SKY/WX    TMP DP  RH WIND       PRES   REMARKS
HARRISBURG PA  PTCLDY    68  64  87 SE6       30.08S
BALTIMORE      PTCLDY    66  63  90 CALM      30.09F
ANNAPOLIS      CLEAR     70  63  78 VRB3      30.09S
ANDREWS AFB    CLEAR     68  63  82 SW6       30.10S
PHILADELPHIA   MOCLDY    71  61  70 S6        30.11S
HENDERSON NC   MOCLDY    68  59  72 S5        30.13S
GREENSBORO     CLOUDY    69  63  81 SW3       30.14S
ROCKY MOUNT    PTCLDY    65  62  90 CALM      30.12S
$$

VAZ100-300900-
MARINE

STATION/POSITION TIME  TEMP    WIND        PRES    WAVE   SWELL
                       AIR SEA DIR/SP/G            HT/PER HT/PER
                 (UTC) (F)     (DEG/KT/KT) (MB)    (FT/S) (FT/S)
15NM E FENWICK I 0750   76 78  180/  6/  6 1019.8R   3/11   2/11
THOMAS POINT MD  0700   74 78  200/ 15/ 17 1019.6F
GOOSES REEF MD   0800   74 79  220/ 12/ 14 1020.0F
POTOMAC MD       0800   74 79  220/  8/ 10 1018.5S   1/ 2
STINGRAY PT      0700   76 79  220/  6/  8 1019.9F   0
JAMESTOWN VA     0800   69 80  230/  4/  4   N/A
CHESAPEAKE LGHT  0700   76      50/  5/  5 1020.2F
CAPE HENRY BUOY  0728      78                N/A     3/11   2/11
1ST LANDING BUOY 0800      78              1019.0F   2/ 5
CAPE CHARLES BUO 0726      78                N/A     3/11   3/11
OFFSHORE WE BUOY 0711      78                N/A     4/10   3/10
64NM E OF VA BCH 0750   77 77   40/ 12/ 14 1018.0F   4/11   3/11
44100 DUCK FRF   0724      78                N/A     4/11   2/11
44056 DUCK FRF   0711      78                N/A     4/11   2/11
DIAMOND SHLS NC  0750   78 81  350/ 10/ 12 1018.6R   3/10   3/10
CAPE LOOKOUT NC  0800   74     350/  6/  7 1018.8R
$$



USA.gov is the U.S. government's official web portal to all federal, state and local government web resources and services.